Location: Unspecified
(35.7250°N, 0.0000°E)
Time: 03:09:56
(UTC+00:00)

Explorer 7 - Pass Details

Date: 24 June 2019
Orbit: 485 x 680 km, 50.3° (Epoch: 22 July)

Event Time Altitude Azimuth Distance (km) Brightness Sun altitude
Rises 10:30:41 0° 301° (WNW) 2,830 10.2 66.7°
Reaches altitude 10° 10:34:08 10° 329° (NNW) 1,977 9.6 67.3°
Maximum altitude 10:36:17 13° 357° (N) 1,809 9.5 67.7°
Drops below altitude 10° 10:38:28 10° 25° (NNE) 2,032 9.8 68.1°
Sets 10:42:08 0° 53° (NE) 2,981 10.7 68.7°
